When you browse on this site, cookies collect data to enhance your experience and personalize the content and advertising you see.
Visit our Privacy Policy to learn more. By continuing to use the site, you agree to this use of cookies and data.
  • în România
  • Lista ţărilor
  • Pe 7 zile
  • Temperatura apei
  • Hartă satelitară
  • Meteo pe hartă
  • Widget-uri
  • user-avatar
    Intrare

    Meteo pe oră la Kuchary

    Astăzi, 24 Februarie, Duminică

    Timp Temperatura Precipitaţii Vânt Presiune Umiditate
    00:00 -2°C° 0 mm 1 m/s 759 mmHg 44%
    01:00 -2°C° 0 mm 1 m/s 759 mmHg 44%
    02:00 -2°C° 0 mm 1 m/s 758 mmHg 43%
    03:00 -2°C° 0 mm 1 m/s 758 mmHg 42%
    04:00 -2°C° 0 mm 1 m/s 758 mmHg 41%
    05:00 -1°C° 0 mm 1 m/s 757 mmHg 39%
    06:00 -1°C° 0 mm 1 m/s 757 mmHg 38%
    07:00 -3°C° 0 mm 2 m/s 757 mmHg 36%
    08:00 -2°C° 0 mm 2 m/s 757 mmHg 33%
    09:00 -1°C° 0 mm 2 m/s 757 mmHg 30%
    10:00 0°C° 0 mm 3 m/s 757 mmHg 27%
    11:00 0°C° 0 mm 3 m/s 756 mmHg 33%
    12:00 0°C° 0 mm 3 m/s 756 mmHg 40%
    13:00 +1°C° 0 mm 3 m/s 756 mmHg 46%
    14:00 +1°C° 0 mm 3 m/s 756 mmHg 50%
    15:00 +1°C° 0 mm 3 m/s 755 mmHg 54%
    16:00 +1°C° 0 mm 3 m/s 755 mmHg 58%
    17:00 0°C° 0 mm 3 m/s 755 mmHg 58%
    18:00 -1°C° 0 mm 3 m/s 755 mmHg 59%
    19:00 -2°C° 0 mm 3 m/s 755 mmHg 60%
    20:00 -1°C° 0 mm 3 m/s 755 mmHg 58%
    21:00 -1°C° 0 mm 3 m/s 755 mmHg 56%
    22:00 -1°C° 0 mm 3 m/s 755 mmHg 54%
    23:00 -1°C° 0 mm 3 m/s 755 mmHg 53%

    Mâine, 25 Februarie, Luni

    Timp Temperatura Precipitaţii Vânt Presiune Umiditate
    00:00 -1°C° 0 mm 3 m/s 755 mmHg 52%
    01:00 -2°C° 0 mm 4 m/s 755 mmHg 52%
    02:00 -2°C° 0 mm 4 m/s 755 mmHg 52%
    03:00 -2°C° 0 mm 4 m/s 755 mmHg 53%
    04:00 -2°C° 0 mm 4 m/s 754 mmHg 53%
    05:00 -2°C° 0 mm 4 m/s 754 mmHg 55%
    06:00 -2°C° 0 mm 4 m/s 754 mmHg 56%
    07:00 -2°C° 0 mm 4 m/s 754 mmHg 57%
    08:00 -1°C° 0 mm 4 m/s 754 mmHg 56%
    09:00 +1°C° 0 mm 5 m/s 754 mmHg 54%
    10:00 +2°C° 0 mm 5 m/s 754 mmHg 52%
    11:00 +3°C° 0 mm 5 m/s 754 mmHg 54%
    12:00 +5°C° 0 mm 5 m/s 754 mmHg 56%
    13:00 +6°C° 0 mm 5 m/s 754 mmHg 59%
    14:00 +5°C° 0 mm 5 m/s 753 mmHg 62%
    15:00 +5°C° 0 mm 4 m/s 753 mmHg 65%
    16:00 +5°C° 0 mm 4 m/s 753 mmHg 69%
    17:00 +4°C° 0 mm 4 m/s 753 mmHg 74%
    18:00 +3°C° 0 mm 4 m/s 753 mmHg 80%
    19:00 0°C° 0 mm 4 m/s 753 mmHg 85%
    20:00 0°C° 0 mm 4 m/s 753 mmHg 87%
    21:00 0°C° 0 mm 4 m/s 753 mmHg 89%
    22:00 0°C° 0 mm 4 m/s 753 mmHg 91%
    23:00 -1°C° 0 mm 4 m/s 753 mmHg 91%

    Poimâine, 26 Februarie, Marţi

    Timp Temperatura Precipitaţii Vânt Presiune Umiditate
    00:00 -1°C° 0 mm 4 m/s 753 mmHg 91%
    01:00 -1°C° 0 mm 4 m/s 752 mmHg 92%
    02:00 -1°C° 0 mm 4 m/s 752 mmHg 92%
    03:00 -1°C° 0 mm 4 m/s 752 mmHg 93%
    04:00 -1°C° 0 mm 4 m/s 751 mmHg 93%
    05:00 -1°C° 0 mm 5 m/s 751 mmHg 93%
    06:00 -1°C° 0 mm 5 m/s 751 mmHg 93%
    07:00 0°C° 0 mm 5 m/s 751 mmHg 92%
    08:00 0°C° 0 mm 5 m/s 750 mmHg 91%
    09:00 +1°C° 0 mm 5 m/s 750 mmHg 89%
    10:00 +2°C° 0 mm 5 m/s 750 mmHg 88%
    11:00 +2°C° 0.1 mm 5 m/s 749 mmHg 85%
    12:00 +3°C° 0.1 mm 6 m/s 749 mmHg 83%
    13:00 +4°C° 0.1 mm 7 m/s 748 mmHg 80%
    14:00 +4°C° 0.2 mm 7 m/s 748 mmHg 79%
    15:00 +4°C° 0.2 mm 7 m/s 748 mmHg 78%
    16:00 +4°C° 0.2 mm 7 m/s 748 mmHg 77%
    17:00 +3°C° 0 mm 6 m/s 748 mmHg 81%
    18:00 +2°C° 0 mm 5 m/s 749 mmHg 85%
    19:00 +1°C° 0 mm 4 m/s 749 mmHg 89%
    20:00 +1°C° 0 mm 4 m/s 749 mmHg 90%
    21:00 0°C° 0 mm 4 m/s 749 mmHg 91%
    22:00 0°C° 0 mm 4 m/s 750 mmHg 91%
    23:00 +1°C° 0 mm 3 m/s 750 mmHg 92%

    27 Februarie, Miercuri

    Timp Temperatura Precipitaţii Vânt Presiune Umiditate
    00:00 0°C° 0 mm 3 m/s 750 mmHg 92%
    01:00 0°C° 0 mm 3 m/s 750 mmHg 92%
    02:00 -1°C° 0 mm 3 m/s 750 mmHg 93%
    03:00 -1°C° 0 mm 3 m/s 750 mmHg 93%
    04:00 -1°C° 0 mm 2 m/s 750 mmHg 94%
    05:00 -1°C° 0 mm 2 m/s 750 mmHg 93%
    06:00 -1°C° 0 mm 2 m/s 750 mmHg 93%
    07:00 -1°C° 0 mm 2 m/s 750 mmHg 93%
    08:00 0°C° 0 mm 3 m/s 750 mmHg 85%
    09:00 +2°C° 0 mm 3 m/s 750 mmHg 76%
    10:00 +4°C° 0 mm 3 m/s 750 mmHg 68%
    11:00 +5°C° 0 mm 3 m/s 749 mmHg 63%
    12:00 +6°C° 0 mm 4 m/s 749 mmHg 58%
    13:00 +7°C° 0 mm 4 m/s 748 mmHg 53%
    14:00 +7°C° 0 mm 4 m/s 748 mmHg 57%
    15:00 +7°C° 0 mm 4 m/s 747 mmHg 61%
    16:00 +8°C° 0 mm 3 m/s 747 mmHg 65%
    17:00 +7°C° 0 mm 3 m/s 747 mmHg 71%
    18:00 +5°C° 0 mm 3 m/s 747 mmHg 77%
    19:00 +4°C° 0 mm 3 m/s 746 mmHg 83%
    20:00 +4°C° 0 mm 3 m/s 746 mmHg 82%
    21:00 +4°C° 0 mm 3 m/s 746 mmHg 82%
    22:00 +3°C° 0 mm 4 m/s 746 mmHg 81%
    23:00 +3°C° 0 mm 4 m/s 745 mmHg 81%

    28 Februarie, Joi

    Timp Temperatura Precipitaţii Vânt Presiune Umiditate
    00:00 +3°C° 0 mm 4 m/s 745 mmHg 80%
    01:00 +3°C° 0 mm 4 m/s 744 mmHg 80%
    02:00 +3°C° 0 mm 4 m/s 744 mmHg 80%
    03:00 +3°C° 0 mm 4 m/s 744 mmHg 79%
    04:00 +3°C° 0 mm 4 m/s 743 mmHg 79%
    05:00 +3°C° 0 mm 4 m/s 743 mmHg 76%
    06:00 +3°C° 0 mm 4 m/s 742 mmHg 74%
    07:00 +3°C° 0 mm 4 m/s 742 mmHg 72%
    08:00 +5°C° 0 mm 5 m/s 742 mmHg 63%
    09:00 +7°C° 0 mm 5 m/s 741 mmHg 54%
    10:00 +10°C° 0 mm 6 m/s 741 mmHg 45%
    11:00 +11°C° 0 mm 7 m/s 740 mmHg 43%
    12:00 +12°C° 0 mm 7 m/s 740 mmHg 42%
    13:00 +13°C° 0 mm 8 m/s 739 mmHg 40%
    14:00 +12°C° 0 mm 7 m/s 739 mmHg 44%
    15:00 +12°C° 0 mm 7 m/s 739 mmHg 49%
    16:00 +11°C° 0 mm 7 m/s 738 mmHg 53%
    17:00 +10°C° 0 mm 6 m/s 739 mmHg 60%
    18:00 +9°C° 0 mm 6 m/s 739 mmHg 66%
    19:00 +8°C° 0 mm 5 m/s 739 mmHg 73%
    20:00 +7°C° 0 mm 5 m/s 739 mmHg 77%
    21:00 +7°C° 0 mm 5 m/s 740 mmHg 81%
    22:00 +6°C° 0 mm 4 m/s 740 mmHg 84%
    23:00 +6°C° 0 mm 4 m/s 740 mmHg 83%

    1 Martie, Vineri

    Timp Temperatura Precipitaţii Vânt Presiune Umiditate
    00:00 +6°C° 0 mm 4 m/s 740 mmHg 81%
    01:00 +6°C° 0 mm 4 m/s 740 mmHg 79%
    02:00 +5°C° 0 mm 4 m/s 740 mmHg 77%
    03:00 +5°C° 0 mm 5 m/s 740 mmHg 76%
    04:00 +5°C° 0 mm 5 m/s 740 mmHg 74%
    05:00 +5°C° 0 mm 5 m/s 741 mmHg 75%
    06:00 +4°C° 0 mm 4 m/s 741 mmHg 77%
    07:00 +4°C° 0 mm 4 m/s 741 mmHg 78%
    08:00 +3°C° 0 mm 5 m/s 741 mmHg 74%
    09:00 +5°C° 0 mm 5 m/s 742 mmHg 71%
    10:00 +4°C° 0 mm 6 m/s 742 mmHg 67%
    11:00 +5°C° 0 mm 6 m/s 742 mmHg 63%
    12:00 +7°C° 0 mm 6 m/s 742 mmHg 59%
    13:00 +7°C° 0 mm 6 m/s 742 mmHg 55%
    14:00 +7°C° 0 mm 5 m/s 742 mmHg 54%
    15:00 +7°C° 0 mm 5 m/s 742 mmHg 53%
    16:00 +7°C° 0 mm 5 m/s 742 mmHg 53%
    17:00 +6°C° 0 mm 4 m/s 742 mmHg 57%
    18:00 +5°C° 0 mm 3 m/s 742 mmHg 61%
    19:00 +4°C° 0 mm 3 m/s 743 mmHg 65%
    20:00 +4°C° 0 mm 2 m/s 743 mmHg 68%
    21:00 +3°C° 0 mm 2 m/s 744 mmHg 71%
    22:00 +3°C° 0 mm 2 m/s 744 mmHg 74%
    23:00 +2°C° 0 mm 2 m/s 744 mmHg 75%
    Arată mai mult